DECAYED

STARLINK-1792, 46693 (Decayed)

Orbit data source: Space-Track

STARLINK-1792, 46693 was a payload satellite owned by SpaceX/Seattle (US) in LEO that was launched on Sun, 18 Oct 2020 UTC via an FALCON 9 launch vehicle from the Air Force Eastern Test Range (AFETR). Payload-class satellites include a variety of spacecraft equipped with specific instruments for various scientific and technological missions. These include communications satellites like Starlink; space stations such as the ISS; scientific satellites like the Hubble; Earth observation satellites from companies like Planet Labs, Umbra, and HawkEye 360; GPS; miniature CubeSats for education and research; and military/defense satellites.

Not visible in the next 10 days
Identifier
46693, 2020-073Z
Orbit
Decayed
Country
Flag of USUS
Related business
Manufacturer
SpaceX/Seattle
Mission
Decayed Commercial Communications
Bus & Motor
STARLINK, Unknown motor
Mass
260 kg wet, ~248 kg dry
Launch date (UTC)
2020-10-18 (5 years ago)
Launch vehicle
FALCON 9
Launch site
Air Force Eastern Test Range (AFETR)
Object type
Payload
Rocket body
Debris
Shape & HBR
Box + 1 Pan, 4.4 m
Radar Cross Section
13.562 m², Large (>1 m²)

Expand to show TLE details & history
Last TLE update: 1 week ago

TLE from 1 week ago
0 STARLINK-1792
1 46693U 20073Z   25250.42627159  .12814739  12391-4  88727-3 0  9990
2 46693  52.9956 248.2419 0002195 292.0161  68.0652 16.40437827270844
Epoch: 2025-09-07T10:13Z
TLE epoch observation values (Epoch: 2025-09-07T10:13:49.865Z)
Latitude
0.00001°
Longitude
108.03822°
Altitude
165.026 km
Speed
7.809 km/s
True Right ascension
16h 32m 58s
True Declination
0° 00' 00"
Sunlit
Object was in daylight at epoch
Visualization orbit readout
Latitude
Unknown
Longitude
Unknown
Altitude
Unknown
Speed
Unknown
Apparent Right ascension
Unknown
Apparent Declination
Unknown
Sunlit
N/A
Visualization observer readout
Local Sidereal Time
03:41:53
Azimuth
Unknown
Elevation
Unknown
Doppler factor
Unknown
Orbital elements
Apogee altitude
166.37 km
Perigee altitude
163.498 km
Semi-major axis
6,543.071 km
Eccentricity
0.00022
Inclination
52.9956°
RAAN
248.2419°
Arg. of periapsis
292.0161°
True anomaly
68.08853°
Mean anomaly
68.0652°
Eccentric anomaly
68.07687°
Mean motion
4.10082 °/min
Orbital period
87.79 mins
BSTAR
0.00088727
Loading maneuver chart data...
Computing Atmospheric mass density...

Documentation

Showing up to 5 results
|